Skip Page Navigation
NASA JPL Caltech
NASA Logo - Jet Propulsion Laboratory + View the NASA Portal
+ Near-Earth Object (NEO) Program
Search JPL
JPL Home Earth Solar System Stars & Galaxies Technology
JPL Solar System Dynamics
BODIES ORBITS EPHEMERIDES TOOLS PHYSICAL DATA DISCOVERY FAQ SITE MAP
JPL Small-Body Database Browser
Search: [ help ]  
(2011 DU)
Classification: Apollo [NEO, PHA]          SPK-ID: 3557842
Ephemeris | Orbit Diagram | Orbital Elements | Physical Parameters | Close-Approach Data ]

[ hide orbit diagram ]
Orbit Diagram
Note: Make sure you have Java enabled on your browser to see the applet. This applet is provided as a 3D orbit visualization tool. The applet was implemented using 2-body methods, and hence should not be used for determining accurate long-term trajectories (over several years or decades) or planetary encounter circumstances. For accurate long-term ephemerides, please instead use our Horizons system.
Orbit Viewer

Additional Notes: the orbits shown in the applet are color coded. The planets are white lines, and the asteroid/comet is a blue line. The bright white line indicates the portion of the orbit that is above the ecliptic plane, and the darker portion is below the ecliptic plane. Likewise for the asteroid/comet orbit, the light blue indicates the portion above the ecliptic plane, and the dark blue the portion below the ecliptic plane.

Orbit Viewer applet originally written and kindly provided by Osamu Ajiki (AstroArts), and further modified by Ron Baalke (JPL).


Orbital Elements at Epoch 2456400.5 (2013-Apr-18.0) TDB
Reference: JPL 27 (heliocentric ecliptic J2000)
 Element Value Uncertainty (1-sigma)   Units 
e .3179921341658485 5.2737e-06  
a 1.172640078871009 4.0566e-06 AU
q .7997497575824077 3.4189e-06 AU
i 2.953010801220076 4.0797e-05 deg
node 177.0507707068134 0.00011852 deg
peri 120.1219297696981 0.0001366 deg
M 140.974504139455 0.0025133 deg
tp 2456218.871664843244
(2012-Oct-18.37166484)
0.0022962 JED
period 463.815787511129
1.27
0.0024068
6.589e-06
d
yr
n .7761702160501857 4.0276e-06 deg/d
Q 1.54553040015961 5.3466e-06 AU
  Orbit Determination Parameters
   # obs. used (total)      122  
   data-arc span      310 days  
   first obs. used      2011-02-22  
   last obs. used      2011-12-29  
   planetary ephem.      DE405  
   SB-pert. ephem.      SB405-CPV-2  
   condition code      3  
   fit RMS      .48526  
   data source      ORB  
   producer      Otto Matic  
   solution date      2011-Dec-29 23:50:10  

Additional Information
 Earth MOID = .0173973 AU 
 T_jup = 5.336 
[ show covariance matrix ]

Ephemeris | Orbit Diagram | Orbital Elements | Physical Parameters | Close-Approach Data ]

Physical Parameter Table
Parameter Symbol Value Units Sigma Reference Notes
absolute magnitude H 21.157 mag .40217 27 autocmod 2.5b

[ show close-approach data ]
Ephemeris | Orbit Diagram | Orbital Elements | Physical Parameters | Close-Approach Data ]
ABOUT SSD CREDITS/AWARDS PRIVACY/COPYRIGHT GLOSSARY LINKS
FirstGov 2013-May-24 10:41 UT
(server date/time)  
NASA Home Page
Site Manager:   Donald K. Yeomans
Webmaster  Alan B. Chamberlin